Regional Weather Roundup
Issued by NWS

Home | Current Version | Previous Version | Text Only | Print | Product List | Glossary Off
Versions: 1 2 3 4 5 6 7 8 9 10 11 12 13 14 15 16 17 18 19 20 21 22 23 24 25 26 27 28 29 30 31 32 33 34 35 36 37 38 39 40 41 42 43 44 45 46 47 48 49 50

000
ASUS43 KLOT 070708
RWRIL

ILLINOIS REGIONAL WEATHER ROUNDUP
NATIONAL WEATHER SERVICE CHICAGO/ROMEOVILLE IL
100 AM CST SUN FEB 07 2016

NOTE: "FAIR" INDICATES FEW OR NO CLOUDS BELOW 12,000 FEET WITH NO
SIGNIFICANT WEATHER AND/OR OBSTRUCTIONS TO VISIBILITY.

* THESE STATIONS ARE NOT UNDER NWS QUALITY CONTROL. THEY ALSO MAY NOT
  REPORT WEATHER SUCH AS PRECIPITATION OR FOG.

ILZ001-002-007-009-015-016-024-070800-
NORTHWEST ILLINOIS

CITY           SKY/WX    TMP DP  RH WIND       PRES   REMARKS
MOLINE         CLOUDY    39  29  67 S13       29.98F WCI  31
STERLING*      CLOUDY    36  28  75 SW3       29.97F
SAVANNA*       MOCLDY    33  31  92 S6        29.97F WCI  27
$$

ILZ003-004-008-010-011-017-018-070800-
NORTH CENTRAL ILLINOIS

CITY           SKY/WX    TMP DP  RH WIND       PRES   REMARKS
ROCKFORD       CLOUDY    32  29  88 S8        30.00F WCI  25
FREEPORT*      CLOUDY    34  30  85 S12G18    29.98F WCI  25
ROCHELLE*      CLOUDY    33  31  91 S9        30.01F WCI  25
DE KALB*       CLOUDY    32  30  92 S7        30.01F WCI  26
PERU*          MOCLDY   -17 -19  88 S8        30.04F WCI -35
$$

ILZ005-006-012>014-019>023-070800-
NORTHEAST ILLINOIS

CITY           SKY/WX    TMP DP  RH WIND       PRES   REMARKS
CHICAGO-OHARE  CLOUDY    34  29  82 SW6       30.02F WCI  29
CHICAGO-MIDWAY MOCLDY    35  28  75 S7        30.04F WCI  29
AURORA         CLOUDY    35  29  78 S8        30.03F WCI  29
LANSING*       CLOUDY    33  30  88 SW7       30.05F WCI  27
JOLIET*        CLOUDY    33  31  92 S3        30.05F
WAUKEGAN       CLOUDY    34  29  82 SW8       30.00F WCI  27
DUPAGE AIRPORT MOCLDY    33  27  78 S6        30.01F WCI  28
KANKAKEE*      PTCLDY    32  29  90 S8        30.08S WCI  25
WHEELING       CLOUDY    34  29  82 S6        30.03F WCI  29
MORRIS*        CLOUDY    32  29  89 S5        30.02F WCI  28
ROMEOVILLE*    CLOUDY    33  30  88 SW8       30.04F WCI  26
NORTHERLY ISL    N/A     37  29  73 S5          N/A  WCI  33
$$

LMZ740>746-070800-
SOUTHERN LAKE MICHIGAN

STATION/POSITION SKY/WX   TEMP    WIND        PRES    VSBY  WAVE
                          AIR SEA DIR/SP/G                  HT/PER
                          (F)     (DEG/KT/KT) (MB)    (MI)  (FT/S)
HARRISON CRIB              38     190/ 12/ 14   N/A
BURNHAM HARBOR             37     220/  5/  7   N/A
CALUMET HARBOR             35     190/  5/  7 1016.9F
BURNS HARBOR               35     190/ 10/ 13 1018.6F
MICHIGAN CITY              37     160/ 16/ 18   N/A
$$

ILZ025>027-034>036-040-047-049-050-058-095>099-070800-
WEST-CENTRAL ILLINOIS

CITY           SKY/WX    TMP DP  RH WIND       PRES   REMARKS
QUINCY         PTCLDY    36  27  69 SW10      30.08F WCI  28
GALESBURG*     PTCLDY    34  30  85 S10       30.02F WCI  26
MACOMB*        PTCLDY    36  30  78 SW9       30.08S WCI  29
JACKSONVILLE*  PTCLDY    41  31  66 SW10      30.10F
PITTSFIELD*    CLOUDY    39  30  68 SW9       30.11S WCI  33
$$

ILZ028>032-037-038-041>044-048-051>054-059>061-070800-
CENTRAL ILLINOIS

CITY           SKY/WX    TMP DP  RH WIND       PRES   REMARKS
PONTIAC        PTCLDY    36  32  83 S5        30.07F WCI  32
BLOOMINGTON    CLEAR     31  30  96 SW8       30.08F WCI  24
DECATUR        CLEAR     36  28  73 SW10      30.11S WCI  28
PEORIA         PTCLDY    34  27  75 SW8       30.06F WCI  27
LACON*         CLOUDY    34  28  79 S3        30.04F
LINCOLN*       CLEAR     34  31  89 SW3       30.09F
SPRINGFIELD    CLEAR     38  28  67 SW7       30.11F WCI  33
TAYLORVILLE    CLEAR     34  28  80 S9        30.12F WCI  26
$$

ILZ033-039-045-046-055>057-062-063-070800-
EAST-CENTRAL ILLINOIS

CITY           SKY/WX    TMP DP  RH WIND       PRES   REMARKS
CHAMPAIGN      CLEAR     31  27  85 S9        30.10F WCI  23
RANTOUL*       PTCLDY    37  31  80 SW7       30.09F WCI  31
MATTOON        CLEAR     39  24  55 SW9       30.12F WCI  33
PARIS*         CLEAR     37  27  69 SW13      30.12F WCI  28
$$

ILZ079-100>102-070800-
SOUTHWEST ILLINOIS

CITY           SKY/WX    TMP DP  RH WIND       PRES   REMARKS
ALTON          CLEAR     36  28  71 S10       30.15S WCI  28
BELLEVILLE     CLEAR     37  21  52 CALM      30.16S
CAHOKIA*       CLEAR     43  19  38 SW5       30.17R
SPARTA*        CLEAR     39  21  47 S8        30.19F WCI  34
$$

ILZ064>066-069>071-074>076-080>082-084>086-088>090-092>094-070800-
SOUTH-CENTRAL ILLINOIS

CITY           SKY/WX    TMP DP  RH WIND       PRES   REMARKS
CARBONDALE     CLEAR     37  21  52 SW8       30.21F WCI  31
CAIRO*         CLEAR     33  26  76 CALM      30.24F
EFFINGHAM*     CLEAR     39  26  58 S10       30.17S WCI  33
MARION         CLEAR     41  23  48 SW7       30.21F
MT. VERNON     CLEAR     34  21  60 S7        30.19F WCI  28
CENTRALIA*     CLEAR     40  25  54 SW12      30.16F
SALEM*         CLEAR     41  23  49 S12       30.17S
METROPOLIS*    CLEAR     30  26  84 CALM      30.24F
$$

ILZ067-068-072-073-078-083-087-091-070800-
SOUTHEAST ILLINOIS

CITY           SKY/WX    TMP DP  RH WIND       PRES   REMARKS
LAWRENCEVILLE  CLEAR     37  25  61 SW10      30.18F WCI  30
FLORA*         CLEAR     37  26  64 SW7       30.18F WCI  31
FAIRFIELD*     CLEAR     35  26  68 CALM      30.18F
HARRISBURG*    CLEAR     37  24  58 CALM      30.22F
ROBINSON*      CLEAR     38  25  59 SW12      30.18S WCI  30
CARMI*         CLEAR     40  24  53 SW10      30.20F
$$

ABBREVIATIONS USED IN REMARKS
   TC - TEMPERATURE IN CELSIUS
  WCI - WIND CHILL INDEX
   HX - HEAT INDEX
  VSB - VISIBILITY
$$




USA.gov is the U.S. government's official web portal to all federal, state and local government web resources and services.